User: anonymous   Login
Location: Mount Wilson Observatory
(34.2257°N, 118.0571°W)
Time: 02:30:49
(UTC-07:00)
Language:

ATLAS 3B CENTAUR R/B - Orbit

View from above orbital plane
View from above orbital plane
View from above satellite
View from above satellite

Ground track
Ground track

The orbit data is extracted from the following two-line orbital elements,

1 28118U 03057B   17117.88849836 +.00055584 +00000-0 +79759-3 0  9993
2 28118 028.1140 262.9847 3091712 042.9561 337.4877 09.29623217116565
Epoch (UTC): 27 April 2017 21:19:26
Eccentricity: 0.3091712
inclination: 28.1140°
perigee height: 222 km
apogee height: 6130 km
right ascension of ascending node: 262.9847°
argument of perigee: 42.9561°
revolutions per day: 9.29623217
mean anomaly at epoch: 337.4877°
orbit number at epoch: 11656

The dashed part of the orbit path shows where the satellite is in the earth's shadow,  

DLR